Year,Month,Day,Hour,Minute,Value (Times are PST for temperature in C)
2014,07,10,00,00,17.30
2014,07,10,00,01,17.30
2014,07,10,00,02,17.30
2014,07,10,00,03,17.30
2014,07,10,00,04,17.20
2014,07,10,00,05,17.20
2014,07,10,00,06,17.20
2014,07,10,00,07,17.20
2014,07,10,00,08,17.20
2014,07,10,00,09,17.10
2014,07,10,00,10,17.10
2014,07,10,00,11,17.00
2014,07,10,00,12,17.00
2014,07,10,00,13,16.90
2014,07,10,00,14,16.90
2014,07,10,00,15,16.80
2014,07,10,00,16,16.70
2014,07,10,00,17,16.70
2014,07,10,00,18,16.60
2014,07,10,00,19,16.50
2014,07,10,00,20,16.40
2014,07,10,00,21,16.40
2014,07,10,00,22,16.30
2014,07,10,00,23,16.30
2014,07,10,00,24,16.20
2014,07,10,00,25,16.20
2014,07,10,00,26,16.10
2014,07,10,00,27,16.10
2014,07,10,00,28,16.00
2014,07,10,00,29,16.00
2014,07,10,00,30,15.90
2014,07,10,00,31,15.90
2014,07,10,00,32,15.90
2014,07,10,00,33,15.90
2014,07,10,00,34,15.80
2014,07,10,00,35,15.80
2014,07,10,00,36,15.80
2014,07,10,00,37,15.80
2014,07,10,00,38,15.70
2014,07,10,00,39,15.70
2014,07,10,00,40,15.70
2014,07,10,00,41,15.70
2014,07,10,00,42,15.70
2014,07,10,00,43,15.70
2014,07,10,00,44,15.70
2014,07,10,00,45,15.80
2014,07,10,00,46,15.80
2014,07,10,00,47,15.80
2014,07,10,00,48,15.80
2014,07,10,00,49,15.80
2014,07,10,00,50,15.80
2014,07,10,00,51,15.80
2014,07,10,00,52,15.80
2014,07,10,00,53,15.70
2014,07,10,00,54,15.70
2014,07,10,00,55,15.70
2014,07,10,00,56,15.70
2014,07,10,00,57,15.70
2014,07,10,00,58,15.70
2014,07,10,00,59,15.70
2014,07,10,01,00,15.70
2014,07,10,01,01,15.80
2014,07,10,01,02,15.80
2014,07,10,01,03,15.80
2014,07,10,01,04,15.80
2014,07,10,01,05,15.80
2014,07,10,01,06,15.70
2014,07,10,01,07,15.70
2014,07,10,01,08,15.70
2014,07,10,01,09,15.70
2014,07,10,01,10,15.60
2014,07,10,01,11,15.50
2014,07,10,01,12,15.40
2014,07,10,01,13,15.30
2014,07,10,01,14,15.20
2014,07,10,01,15,15.10
2014,07,10,01,16,15.00
2014,07,10,01,17,14.90
2014,07,10,01,18,14.80
2014,07,10,01,19,14.80
2014,07,10,01,20,14.70
2014,07,10,01,21,14.70
2014,07,10,01,22,14.60
2014,07,10,01,23,14.60
2014,07,10,01,24,14.50
2014,07,10,01,25,14.40
2014,07,10,01,26,14.30
2014,07,10,01,27,14.30
2014,07,10,01,28,14.20
2014,07,10,01,29,14.10
2014,07,10,01,30,14.10
2014,07,10,01,31,14.00
2014,07,10,01,32,13.90
2014,07,10,01,33,13.90
2014,07,10,01,34,13.80
2014,07,10,01,35,13.80
2014,07,10,01,36,13.80
2014,07,10,01,37,13.70
2014,07,10,01,38,13.70
2014,07,10,01,39,13.60
2014,07,10,01,40,13.60
2014,07,10,01,41,13.60
2014,07,10,01,42,13.60
2014,07,10,01,43,13.50
2014,07,10,01,44,13.50
2014,07,10,01,45,13.50
2014,07,10,01,46,13.50
2014,07,10,01,47,13.40
2014,07,10,01,48,13.40
2014,07,10,01,49,13.40
2014,07,10,01,50,13.40
2014,07,10,01,51,13.40
2014,07,10,01,52,13.40
2014,07,10,01,53,13.40
2014,07,10,01,54,13.40
2014,07,10,01,55,13.30
2014,07,10,01,56,13.30
2014,07,10,01,57,13.30
2014,07,10,01,58,13.30
2014,07,10,01,59,13.30
2014,07,10,02,00,13.30
2014,07,10,02,01,13.30
2014,07,10,02,02,13.20
2014,07,10,02,03,13.20
2014,07,10,02,04,13.20
2014,07,10,02,05,13.20
2014,07,10,02,06,13.20
2014,07,10,02,07,13.20
2014,07,10,02,08,13.20
2014,07,10,02,09,13.10
2014,07,10,02,10,13.10
2014,07,10,02,11,13.10
2014,07,10,02,12,13.10
2014,07,10,02,13,13.10
2014,07,10,02,14,13.10
2014,07,10,02,15,13.10
2014,07,10,02,16,13.10
2014,07,10,02,17,13.10
2014,07,10,02,18,13.10
2014,07,10,02,19,13.00
2014,07,10,02,20,13.00
2014,07,10,02,21,13.00
2014,07,10,02,22,13.00
2014,07,10,02,23,13.00
2014,07,10,02,24,13.00
2014,07,10,02,25,12.90
2014,07,10,02,26,12.90
2014,07,10,02,27,12.90
2014,07,10,02,28,12.90
2014,07,10,02,29,12.90
2014,07,10,02,30,12.90
2014,07,10,02,31,12.90
2014,07,10,02,32,12.90
2014,07,10,02,33,12.90
2014,07,10,02,34,12.80
2014,07,10,02,35,12.90
2014,07,10,02,36,12.80
2014,07,10,02,37,12.80
2014,07,10,02,38,12.80
2014,07,10,02,39,12.80
2014,07,10,02,40,12.80
2014,07,10,02,41,12.80
2014,07,10,02,42,12.70
2014,07,10,02,43,12.70
2014,07,10,02,44,12.70
2014,07,10,02,45,12.70
2014,07,10,02,46,12.70
2014,07,10,02,47,12.70
2014,07,10,02,48,12.60
2014,07,10,02,49,12.60
2014,07,10,02,50,12.60
2014,07,10,02,51,12.50
2014,07,10,02,52,12.50
2014,07,10,02,53,12.40
2014,07,10,02,54,12.40
2014,07,10,02,55,12.40
2014,07,10,02,56,12.30
2014,07,10,02,57,12.30
2014,07,10,02,58,12.30
2014,07,10,02,59,12.30
2014,07,10,03,00,12.20
2014,07,10,03,01,12.20
2014,07,10,03,02,12.20
2014,07,10,03,03,12.20
2014,07,10,03,04,12.20
2014,07,10,03,05,12.20
2014,07,10,03,06,12.20
2014,07,10,03,07,12.10
2014,07,10,03,08,12.10
2014,07,10,03,09,12.10
2014,07,10,03,10,12.10
2014,07,10,03,11,12.10
2014,07,10,03,12,12.10
2014,07,10,03,13,12.10
2014,07,10,03,14,12.10
2014,07,10,03,15,12.10
2014,07,10,03,16,12.10
2014,07,10,03,17,12.10
2014,07,10,03,18,12.10
2014,07,10,03,19,12.20
2014,07,10,03,20,12.20
2014,07,10,03,21,12.20
2014,07,10,03,22,12.20
2014,07,10,03,23,12.20
2014,07,10,03,24,12.20
2014,07,10,03,25,12.30
2014,07,10,03,26,12.30
2014,07,10,03,27,12.30
2014,07,10,03,28,12.40
2014,07,10,03,29,12.40
2014,07,10,03,30,12.40
2014,07,10,03,31,12.40
2014,07,10,03,32,12.40
2014,07,10,03,33,12.40
2014,07,10,03,34,12.30
2014,07,10,03,35,12.30
2014,07,10,03,36,12.20
2014,07,10,03,37,12.20
2014,07,10,03,38,12.20
2014,07,10,03,39,12.10
2014,07,10,03,40,12.10
2014,07,10,03,41,12.10
2014,07,10,03,42,12.00
2014,07,10,03,43,11.90
2014,07,10,03,44,11.90
2014,07,10,03,45,11.80
2014,07,10,03,46,11.80
2014,07,10,03,47,11.70
2014,07,10,03,48,11.70
2014,07,10,03,49,11.70
2014,07,10,03,50,11.60
2014,07,10,03,51,11.60
2014,07,10,03,52,11.60
2014,07,10,03,53,11.60
2014,07,10,03,54,11.60
2014,07,10,03,55,11.60
2014,07,10,03,56,11.50
2014,07,10,03,57,11.50
2014,07,10,03,58,11.50
2014,07,10,03,59,11.50
2014,07,10,04,00,11.50
2014,07,10,04,01,11.50
2014,07,10,04,02,11.50
2014,07,10,04,03,11.50
2014,07,10,04,04,11.40
2014,07,10,04,05,11.40
2014,07,10,04,06,11.40
2014,07,10,04,07,11.40
2014,07,10,04,08,11.40
2014,07,10,04,09,11.40
2014,07,10,04,10,11.40
2014,07,10,04,11,11.40
2014,07,10,04,12,11.30
2014,07,10,04,13,11.30
2014,07,10,04,14,11.30
2014,07,10,04,15,11.30
2014,07,10,04,16,11.30
2014,07,10,04,17,11.20
2014,07,10,04,18,11.20
2014,07,10,04,19,11.20
2014,07,10,04,20,11.20
2014,07,10,04,21,11.20
2014,07,10,04,22,11.20
2014,07,10,04,23,11.20
2014,07,10,04,24,11.20
2014,07,10,04,25,11.10
2014,07,10,04,26,11.10
2014,07,10,04,27,11.10
2014,07,10,04,28,11.10
2014,07,10,04,29,11.10
2014,07,10,04,30,11.00
2014,07,10,04,31,11.00
2014,07,10,04,32,11.00
2014,07,10,04,33,11.00
2014,07,10,04,34,11.00
2014,07,10,04,35,10.90
2014,07,10,04,36,10.90
2014,07,10,04,37,10.90
2014,07,10,04,38,10.90
2014,07,10,04,39,10.90
2014,07,10,04,40,10.90
2014,07,10,04,41,10.90
2014,07,10,04,42,10.90
2014,07,10,04,43,10.90
2014,07,10,04,44,10.90
2014,07,10,04,45,10.80
2014,07,10,04,46,10.80
2014,07,10,04,47,10.80
2014,07,10,04,48,10.80
2014,07,10,04,49,10.80
2014,07,10,04,50,10.80
2014,07,10,04,51,10.80
2014,07,10,04,52,10.80
2014,07,10,04,53,10.70
2014,07,10,04,54,10.70
2014,07,10,04,55,10.70
2014,07,10,04,56,10.70
2014,07,10,04,57,10.70
2014,07,10,04,58,10.70
2014,07,10,04,59,10.70
2014,07,10,05,00,10.70
2014,07,10,05,01,10.70
2014,07,10,05,02,10.70
2014,07,10,05,03,10.60
2014,07,10,05,04,10.60
2014,07,10,05,05,10.60
2014,07,10,05,06,10.60
2014,07,10,05,07,10.60
2014,07,10,05,08,10.60
2014,07,10,05,09,10.60
2014,07,10,05,10,10.70
2014,07,10,05,11,10.70
2014,07,10,05,12,10.70
2014,07,10,05,13,10.70
2014,07,10,05,14,10.70
2014,07,10,05,15,10.70
2014,07,10,05,16,10.70
2014,07,10,05,17,10.70
2014,07,10,05,18,10.70
2014,07,10,05,19,10.70
2014,07,10,05,20,10.70
2014,07,10,05,21,10.70
2014,07,10,05,22,10.70
2014,07,10,05,23,10.70
2014,07,10,05,24,10.70
2014,07,10,05,25,10.70
2014,07,10,05,26,10.70
2014,07,10,05,27,10.70
2014,07,10,05,28,10.70
2014,07,10,05,29,10.70
2014,07,10,05,30,10.60
2014,07,10,05,31,10.60
2014,07,10,05,32,10.60
2014,07,10,05,33,10.60
2014,07,10,05,34,10.60
2014,07,10,05,35,10.60
2014,07,10,05,36,10.60
2014,07,10,05,37,10.60
2014,07,10,05,38,10.70
2014,07,10,05,39,10.70
2014,07,10,05,40,10.70
2014,07,10,05,41,10.80
2014,07,10,05,42,10.80
2014,07,10,05,43,10.80
2014,07,10,05,44,10.90
2014,07,10,05,45,10.90
2014,07,10,05,46,10.90
2014,07,10,05,47,10.90
2014,07,10,05,48,10.90
2014,07,10,05,49,10.90
2014,07,10,05,50,10.90
2014,07,10,05,51,10.90
2014,07,10,05,52,11.00
2014,07,10,05,53,11.00
2014,07,10,05,54,11.00
2014,07,10,05,55,11.00
2014,07,10,05,56,11.00
2014,07,10,05,57,11.00
2014,07,10,05,58,11.00
2014,07,10,05,59,11.00
2014,07,10,06,00,11.10
2014,07,10,06,01,11.10
2014,07,10,06,02,11.10
2014,07,10,06,03,11.20
2014,07,10,06,04,11.20
2014,07,10,06,05,11.20
2014,07,10,06,06,11.30
2014,07,10,06,07,11.30
2014,07,10,06,08,11.30
2014,07,10,06,09,11.40
2014,07,10,06,10,11.50
2014,07,10,06,11,11.50
2014,07,10,06,12,11.60
2014,07,10,06,13,11.60
2014,07,10,06,14,11.70
2014,07,10,06,15,11.70
2014,07,10,06,16,11.80
2014,07,10,06,17,11.80
2014,07,10,06,18,11.80
2014,07,10,06,19,11.90
2014,07,10,06,20,11.90
2014,07,10,06,21,11.90
2014,07,10,06,22,12.00
2014,07,10,06,23,12.00
2014,07,10,06,24,12.00
2014,07,10,06,25,12.00
2014,07,10,06,26,12.00
2014,07,10,06,27,12.10
2014,07,10,06,28,12.10
2014,07,10,06,29,12.10
2014,07,10,06,30,12.10
2014,07,10,06,31,12.20
2014,07,10,06,32,12.20
2014,07,10,06,33,12.30
2014,07,10,06,34,12.30
2014,07,10,06,35,12.30
2014,07,10,06,36,12.40
2014,07,10,06,37,12.40
2014,07,10,06,38,12.50
2014,07,10,06,39,12.50
2014,07,10,06,40,12.60
2014,07,10,06,41,12.60
2014,07,10,06,42,12.70
2014,07,10,06,43,12.70
2014,07,10,06,44,12.80
2014,07,10,06,45,12.80
2014,07,10,06,46,12.90
2014,07,10,06,47,13.00
2014,07,10,06,48,13.00
2014,07,10,06,49,13.10
2014,07,10,06,50,13.10
2014,07,10,06,51,13.20
2014,07,10,06,52,13.20
2014,07,10,06,53,13.30
2014,07,10,06,54,13.30
2014,07,10,06,55,13.30
2014,07,10,06,56,13.40
2014,07,10,06,57,13.40
2014,07,10,06,58,13.40
2014,07,10,06,59,13.40
2014,07,10,07,00,13.50
2014,07,10,07,01,13.50
2014,07,10,07,02,13.60
2014,07,10,07,03,13.60
2014,07,10,07,04,13.60
2014,07,10,07,05,13.60
2014,07,10,07,06,13.70
2014,07,10,07,07,13.70
2014,07,10,07,08,13.70
2014,07,10,07,09,13.80
2014,07,10,07,10,13.80
2014,07,10,07,11,13.80
2014,07,10,07,12,13.90
2014,07,10,07,13,13.90
2014,07,10,07,14,14.00
2014,07,10,07,15,14.00
2014,07,10,07,16,14.10
2014,07,10,07,17,14.10
2014,07,10,07,18,14.10
2014,07,10,07,19,14.20
2014,07,10,07,20,14.20
2014,07,10,07,21,14.20
2014,07,10,07,22,14.30
2014,07,10,07,23,14.30
2014,07,10,07,24,14.40
2014,07,10,07,25,14.40
2014,07,10,07,26,14.40
2014,07,10,07,27,14.50
2014,07,10,07,28,14.50
2014,07,10,07,29,14.60
2014,07,10,07,30,14.60
2014,07,10,07,31,14.60
2014,07,10,07,32,14.60
2014,07,10,07,33,14.70
2014,07,10,07,34,14.70
2014,07,10,07,35,14.80
2014,07,10,07,36,14.80
2014,07,10,07,37,14.80
2014,07,10,07,38,14.90
2014,07,10,07,39,14.90
2014,07,10,07,40,15.00
2014,07,10,07,41,15.10
2014,07,10,07,42,15.10
2014,07,10,07,43,15.10
2014,07,10,07,44,15.20
2014,07,10,07,45,15.20
2014,07,10,07,46,15.20
2014,07,10,07,47,15.30
2014,07,10,07,48,15.30
2014,07,10,07,49,15.30
2014,07,10,07,50,15.30
2014,07,10,07,51,15.30
2014,07,10,07,52,15.30
2014,07,10,07,53,15.30
2014,07,10,07,54,15.30
2014,07,10,07,55,15.30
2014,07,10,07,56,15.40
2014,07,10,07,57,15.40
2014,07,10,07,58,15.50
2014,07,10,07,59,15.50
2014,07,10,08,00,15.60
2014,07,10,08,01,15.60
2014,07,10,08,02,15.60
2014,07,10,08,03,15.70
2014,07,10,08,04,15.70
2014,07,10,08,05,15.70
2014,07,10,08,06,15.70
2014,07,10,08,07,15.80
2014,07,10,08,08,15.80
2014,07,10,08,09,15.80
2014,07,10,08,10,15.90
2014,07,10,08,11,15.90
2014,07,10,08,12,15.90
2014,07,10,08,13,15.90
2014,07,10,08,14,16.00
2014,07,10,08,15,16.00
2014,07,10,08,16,16.00
2014,07,10,08,17,16.10
2014,07,10,08,18,16.10
2014,07,10,08,19,16.10
2014,07,10,08,20,16.10
2014,07,10,08,21,16.10
2014,07,10,08,22,16.10
2014,07,10,08,23,16.10
2014,07,10,08,24,16.20
2014,07,10,08,25,16.20
2014,07,10,08,26,16.20
2014,07,10,08,27,16.30
2014,07,10,08,28,16.30
2014,07,10,08,29,16.40
2014,07,10,08,30,16.40
2014,07,10,08,31,16.50
2014,07,10,08,32,16.50
2014,07,10,08,33,16.60
2014,07,10,08,34,16.60
2014,07,10,08,35,16.60
2014,07,10,08,36,16.60
2014,07,10,08,37,16.60
2014,07,10,08,38,16.70
2014,07,10,08,39,16.70
2014,07,10,08,40,16.70
2014,07,10,08,41,16.70
2014,07,10,08,42,16.80
2014,07,10,08,43,16.80
2014,07,10,08,44,16.90
2014,07,10,08,45,16.90
2014,07,10,08,46,16.90
2014,07,10,08,47,17.00
2014,07,10,08,48,17.00
2014,07,10,08,49,17.00
2014,07,10,08,50,17.00
2014,07,10,08,51,17.10
2014,07,10,08,52,17.10
2014,07,10,08,53,17.20
2014,07,10,08,54,17.20
2014,07,10,08,55,17.20
2014,07,10,08,56,17.20
2014,07,10,08,57,17.20
2014,07,10,08,58,17.30
2014,07,10,08,59,17.30
2014,07,10,09,00,17.30
2014,07,10,09,01,17.30
2014,07,10,09,02,17.30
2014,07,10,09,03,17.30
2014,07,10,09,04,17.30
2014,07,10,09,05,17.30
2014,07,10,09,06,17.30
2014,07,10,09,07,17.40
2014,07,10,09,08,17.40
2014,07,10,09,09,17.40
2014,07,10,09,10,17.50
2014,07,10,09,11,17.60
2014,07,10,09,12,17.60
2014,07,10,09,13,17.70
2014,07,10,09,14,17.70
2014,07,10,09,15,17.70
2014,07,10,09,16,17.70
2014,07,10,09,17,17.80
2014,07,10,09,18,17.90
2014,07,10,09,19,17.90
2014,07,10,09,20,18.00
2014,07,10,09,21,18.00
2014,07,10,09,22,18.00
2014,07,10,09,23,18.00
2014,07,10,09,24,18.10
2014,07,10,09,25,18.10
2014,07,10,09,26,18.10
2014,07,10,09,27,18.10
2014,07,10,09,28,18.10
2014,07,10,09,29,18.10
2014,07,10,09,30,18.10
2014,07,10,09,31,18.20
2014,07,10,09,32,18.20
2014,07,10,09,33,18.20
2014,07,10,09,34,18.30
2014,07,10,09,35,18.30
2014,07,10,09,36,18.30
2014,07,10,09,37,18.30
2014,07,10,09,38,18.30
2014,07,10,09,39,18.40
2014,07,10,09,40,18.40
2014,07,10,09,41,18.40
2014,07,10,09,42,18.40
2014,07,10,09,43,18.40
2014,07,10,09,44,18.40
2014,07,10,09,45,18.40
2014,07,10,09,46,18.40
2014,07,10,09,47,18.40
2014,07,10,09,48,18.50
2014,07,10,09,49,18.60
2014,07,10,09,50,18.60
2014,07,10,09,51,18.70
2014,07,10,09,52,18.70
2014,07,10,09,53,18.70
2014,07,10,09,54,18.70
2014,07,10,09,55,18.80
2014,07,10,09,56,18.80
2014,07,10,09,57,18.80
2014,07,10,09,58,18.90
2014,07,10,09,59,18.90
2014,07,10,10,00,19.00
2014,07,10,10,01,19.00
2014,07,10,10,02,19.10
2014,07,10,10,03,19.10
2014,07,10,10,04,19.20
2014,07,10,10,05,19.20
2014,07,10,10,06,19.30
2014,07,10,10,07,19.40
2014,07,10,10,08,19.40
2014,07,10,10,09,19.40
2014,07,10,10,10,19.40
2014,07,10,10,11,19.40
2014,07,10,10,12,19.40
2014,07,10,10,13,19.30
2014,07,10,10,14,19.30
2014,07,10,10,15,19.30
2014,07,10,10,16,19.30
2014,07,10,10,17,19.20
2014,07,10,10,18,19.20
2014,07,10,10,19,19.20
2014,07,10,10,20,19.20
2014,07,10,10,21,19.20
2014,07,10,10,22,19.30
2014,07,10,10,23,19.30
2014,07,10,10,24,19.40
2014,07,10,10,25,19.40
2014,07,10,10,26,19.40
2014,07,10,10,27,19.40
2014,07,10,10,28,19.40
2014,07,10,10,29,19.40
2014,07,10,10,30,19.40
2014,07,10,10,31,19.40
2014,07,10,10,32,19.50
2014,07,10,10,33,19.50
2014,07,10,10,34,19.60
2014,07,10,10,35,19.60
2014,07,10,10,36,19.50
2014,07,10,10,37,19.40
2014,07,10,10,38,19.40
2014,07,10,10,39,19.40
2014,07,10,10,40,19.40
2014,07,10,10,41,19.40
2014,07,10,10,42,19.50
2014,07,10,10,43,19.50
2014,07,10,10,44,19.60
2014,07,10,10,45,19.60
2014,07,10,10,46,19.50
2014,07,10,10,47,19.60
2014,07,10,10,48,19.60
2014,07,10,10,49,19.60
2014,07,10,10,50,19.70
2014,07,10,10,51,19.70
2014,07,10,10,52,19.70
2014,07,10,10,53,19.80
2014,07,10,10,54,19.80
2014,07,10,10,55,19.80
2014,07,10,10,56,19.80
2014,07,10,10,57,19.80
2014,07,10,10,58,19.90
2014,07,10,10,59,20.00
2014,07,10,11,00,20.10
2014,07,10,11,01,20.10
2014,07,10,11,02,20.20
2014,07,10,11,03,20.20
2014,07,10,11,04,20.30
2014,07,10,11,05,20.30
2014,07,10,11,06,20.30
2014,07,10,11,07,20.30
2014,07,10,11,08,20.30
2014,07,10,11,09,20.40
2014,07,10,11,10,20.40
2014,07,10,11,11,20.50
2014,07,10,11,12,20.50
2014,07,10,11,13,20.60
2014,07,10,11,14,20.50
2014,07,10,11,15,20.50
2014,07,10,11,16,20.40
2014,07,10,11,17,20.40
2014,07,10,11,18,20.30
2014,07,10,11,19,20.30
2014,07,10,11,20,20.40
2014,07,10,11,21,20.40
2014,07,10,11,22,20.50
2014,07,10,11,23,20.50
2014,07,10,11,24,20.50
2014,07,10,11,25,20.50
2014,07,10,11,26,20.40
2014,07,10,11,27,20.40
2014,07,10,11,28,20.40
2014,07,10,11,29,20.40
2014,07,10,11,30,20.50
2014,07,10,11,31,20.50
2014,07,10,11,32,20.60
2014,07,10,11,33,20.70
2014,07,10,11,34,20.70
2014,07,10,11,35,20.80
2014,07,10,11,36,20.80
2014,07,10,11,37,20.80
2014,07,10,11,38,20.70
2014,07,10,11,39,20.60
2014,07,10,11,40,20.50
2014,07,10,11,41,20.50
2014,07,10,11,42,20.50
2014,07,10,11,43,20.50
2014,07,10,11,44,20.50
2014,07,10,11,45,20.60
2014,07,10,11,46,20.60
2014,07,10,11,47,20.60
2014,07,10,11,48,20.70
2014,07,10,11,49,20.80
2014,07,10,11,50,20.90
2014,07,10,11,51,21.00
2014,07,10,11,52,21.10
2014,07,10,11,53,21.20
2014,07,10,11,54,21.30
2014,07,10,11,55,21.40
2014,07,10,11,56,21.40
2014,07,10,11,57,21.40
2014,07,10,11,58,21.40
2014,07,10,11,59,21.50
2014,07,10,12,00,21.50
2014,07,10,12,01,21.50
2014,07,10,12,02,21.50
2014,07,10,12,03,21.50
2014,07,10,12,04,21.50
2014,07,10,12,05,21.40
2014,07,10,12,06,21.40
2014,07,10,12,07,21.40
2014,07,10,12,08,21.40
2014,07,10,12,09,21.50
2014,07,10,12,10,21.50
2014,07,10,12,11,21.50
2014,07,10,12,12,21.60
2014,07,10,12,13,21.70
2014,07,10,12,14,21.70
2014,07,10,12,15,21.70
2014,07,10,12,16,21.70
2014,07,10,12,17,21.70
2014,07,10,12,18,21.70
2014,07,10,12,19,21.70
2014,07,10,12,20,21.70
2014,07,10,12,21,21.80
2014,07,10,12,22,21.80
2014,07,10,12,23,21.80
2014,07,10,12,24,21.80
2014,07,10,12,25,21.80
2014,07,10,12,26,21.80
2014,07,10,12,27,21.80
2014,07,10,12,28,21.80
2014,07,10,12,29,21.80
2014,07,10,12,30,21.80
2014,07,10,12,31,21.90
2014,07,10,12,32,21.90
2014,07,10,12,33,21.90
2014,07,10,12,34,21.90
2014,07,10,12,35,21.90
2014,07,10,12,36,22.00
2014,07,10,12,37,22.00
2014,07,10,12,38,22.00
2014,07,10,12,39,22.10
2014,07,10,12,40,22.20
2014,07,10,12,41,22.20
2014,07,10,12,42,22.20
2014,07,10,12,43,22.30
2014,07,10,12,44,22.30
2014,07,10,12,45,22.40
2014,07,10,12,46,22.50
2014,07,10,12,47,22.60
2014,07,10,12,48,22.60
2014,07,10,12,49,22.60
2014,07,10,12,50,22.60
2014,07,10,12,51,22.60
2014,07,10,12,52,22.60
2014,07,10,12,53,22.60
2014,07,10,12,54,22.60
2014,07,10,12,55,22.60
2014,07,10,12,56,22.60
2014,07,10,12,57,22.60
2014,07,10,12,58,22.60
2014,07,10,12,59,22.60
2014,07,10,13,00,22.60
2014,07,10,13,01,22.60
2014,07,10,13,02,22.60
2014,07,10,13,03,22.60
2014,07,10,13,04,22.60
2014,07,10,13,05,22.60
2014,07,10,13,06,22.60
2014,07,10,13,07,22.60
2014,07,10,13,08,22.70
2014,07,10,13,09,22.70
2014,07,10,13,10,22.70
2014,07,10,13,11,22.70
2014,07,10,13,12,22.70
2014,07,10,13,13,22.70
2014,07,10,13,14,22.70
2014,07,10,13,15,22.80
2014,07,10,13,16,23.00
2014,07,10,13,17,23.10
2014,07,10,13,18,23.20
2014,07,10,13,19,23.20
2014,07,10,13,20,23.20
2014,07,10,13,21,23.30
2014,07,10,13,22,23.30
2014,07,10,13,23,23.30
2014,07,10,13,24,23.30
2014,07,10,13,25,23.20
2014,07,10,13,26,23.20
2014,07,10,13,27,23.20
2014,07,10,13,28,23.10
2014,07,10,13,29,23.10
2014,07,10,13,30,23.10
2014,07,10,13,31,23.20
2014,07,10,13,32,23.30
2014,07,10,13,33,23.40
2014,07,10,13,34,23.40
2014,07,10,13,35,23.50
2014,07,10,13,36,23.50
2014,07,10,13,37,23.50
2014,07,10,13,38,23.50
2014,07,10,13,39,23.60
2014,07,10,13,40,23.70
2014,07,10,13,41,23.70
2014,07,10,13,42,23.70
2014,07,10,13,43,23.70
2014,07,10,13,44,23.70
2014,07,10,13,45,23.80
2014,07,10,13,46,23.80
2014,07,10,13,47,23.80
2014,07,10,13,48,23.70
2014,07,10,13,49,23.70
2014,07,10,13,50,23.70
2014,07,10,13,51,23.70
2014,07,10,13,52,23.80
2014,07,10,13,53,23.80
2014,07,10,13,54,23.80
2014,07,10,13,55,23.70
2014,07,10,13,56,23.70
2014,07,10,13,57,23.70
2014,07,10,13,58,23.70
2014,07,10,13,59,23.70
2014,07,10,14,00,23.70
2014,07,10,14,01,23.70
2014,07,10,14,02,23.70
2014,07,10,14,03,23.70
2014,07,10,14,04,23.80
2014,07,10,14,05,23.80
2014,07,10,14,06,23.90
2014,07,10,14,07,23.90
2014,07,10,14,08,23.80
2014,07,10,14,09,23.80
2014,07,10,14,10,23.70
2014,07,10,14,11,23.80
2014,07,10,14,12,23.80
2014,07,10,14,13,23.90
2014,07,10,14,14,23.90
2014,07,10,14,15,23.90
2014,07,10,14,16,23.80
2014,07,10,14,17,23.90
2014,07,10,14,18,23.90
2014,07,10,14,19,23.90
2014,07,10,14,20,24.00
2014,07,10,14,21,24.10
2014,07,10,14,22,24.10
2014,07,10,14,23,24.20
2014,07,10,14,24,24.20
2014,07,10,14,25,24.30
2014,07,10,14,26,24.30
2014,07,10,14,27,24.40
2014,07,10,14,28,24.50
2014,07,10,14,29,24.50
2014,07,10,14,30,24.60
2014,07,10,14,31,24.70
2014,07,10,14,32,24.70
2014,07,10,14,33,24.80
2014,07,10,14,34,24.80
2014,07,10,14,35,24.80
2014,07,10,14,36,24.80
2014,07,10,14,37,24.90
2014,07,10,14,38,24.90
2014,07,10,14,39,24.90
2014,07,10,14,40,24.90
2014,07,10,14,41,24.80
2014,07,10,14,42,24.80
2014,07,10,14,43,24.80
2014,07,10,14,44,24.80
2014,07,10,14,45,24.80
2014,07,10,14,46,24.80
2014,07,10,14,47,24.80
2014,07,10,14,48,24.80
2014,07,10,14,49,24.80
2014,07,10,14,50,24.90
2014,07,10,14,51,25.00
2014,07,10,14,52,25.10
2014,07,10,14,53,25.20
2014,07,10,14,54,25.20
2014,07,10,14,55,25.20
2014,07,10,14,56,25.20
2014,07,10,14,57,25.20
2014,07,10,14,58,25.30
2014,07,10,14,59,25.30
2014,07,10,15,00,25.30
2014,07,10,15,01,25.30
2014,07,10,15,02,25.30
2014,07,10,15,03,25.30
2014,07,10,15,04,25.30
2014,07,10,15,05,25.30
2014,07,10,15,06,25.30
2014,07,10,15,07,25.20
2014,07,10,15,08,25.10
2014,07,10,15,09,25.00
2014,07,10,15,10,25.00
2014,07,10,15,11,24.90
2014,07,10,15,12,24.90
2014,07,10,15,13,25.00
2014,07,10,15,14,25.00
2014,07,10,15,15,25.00
2014,07,10,15,16,25.10
2014,07,10,15,17,25.10
2014,07,10,15,18,25.20
2014,07,10,15,19,25.30
2014,07,10,15,20,25.30
2014,07,10,15,21,25.40
2014,07,10,15,22,25.40
2014,07,10,15,23,25.40
2014,07,10,15,24,25.30
2014,07,10,15,25,25.30
2014,07,10,15,26,25.30
2014,07,10,15,27,25.30
2014,07,10,15,28,25.30
2014,07,10,15,29,25.30
2014,07,10,15,30,25.40
2014,07,10,15,31,25.50
2014,07,10,15,32,25.50
2014,07,10,15,33,25.60
2014,07,10,15,34,25.60
2014,07,10,15,35,25.60
2014,07,10,15,36,25.60
2014,07,10,15,37,25.60
2014,07,10,15,38,25.60
2014,07,10,15,39,25.60
2014,07,10,15,40,25.50
2014,07,10,15,41,25.50
2014,07,10,15,42,25.40
2014,07,10,15,43,25.40
2014,07,10,15,44,25.50
2014,07,10,15,45,25.50
2014,07,10,15,46,25.60
2014,07,10,15,47,25.60
2014,07,10,15,48,25.60
2014,07,10,15,49,25.70
2014,07,10,15,50,25.70
2014,07,10,15,51,25.80
2014,07,10,15,52,25.80
2014,07,10,15,53,25.80
2014,07,10,15,54,25.80
2014,07,10,15,55,25.80
2014,07,10,15,56,25.80
2014,07,10,15,57,25.80
2014,07,10,15,58,25.70
2014,07,10,15,59,25.80
2014,07,10,16,00,25.80
2014,07,10,16,01,25.80
2014,07,10,16,02,25.80
2014,07,10,16,03,25.80
2014,07,10,16,04,25.80
2014,07,10,16,05,25.80
2014,07,10,16,06,25.80
2014,07,10,16,07,26.00
2014,07,10,16,08,26.10
2014,07,10,16,09,26.20
2014,07,10,16,10,26.20
2014,07,10,16,11,26.20
2014,07,10,16,12,26.20
2014,07,10,16,13,26.20
2014,07,10,16,14,26.20
2014,07,10,16,15,26.20
2014,07,10,16,16,26.20
2014,07,10,16,17,26.20
2014,07,10,16,18,26.10
2014,07,10,16,19,26.10
2014,07,10,16,20,26.20
2014,07,10,16,21,26.20
2014,07,10,16,22,26.20
2014,07,10,16,23,26.30
2014,07,10,16,24,26.30
2014,07,10,16,25,26.40
2014,07,10,16,26,26.50
2014,07,10,16,27,26.50
2014,07,10,16,28,26.60
2014,07,10,16,29,26.60
2014,07,10,16,30,26.70
2014,07,10,16,31,26.70
2014,07,10,16,32,26.70
2014,07,10,16,33,26.80
2014,07,10,16,34,26.90
2014,07,10,16,35,26.90
2014,07,10,16,36,27.00
2014,07,10,16,37,27.10
2014,07,10,16,38,27.10
2014,07,10,16,39,27.10
2014,07,10,16,40,27.10
2014,07,10,16,41,27.10
2014,07,10,16,42,27.10
2014,07,10,16,43,27.10
2014,07,10,16,44,27.10
2014,07,10,16,45,27.10
2014,07,10,16,46,27.00
2014,07,10,16,47,26.90
2014,07,10,16,48,26.80
2014,07,10,16,49,26.80
2014,07,10,16,50,26.70
2014,07,10,16,51,26.70
2014,07,10,16,52,26.70
2014,07,10,16,53,26.70
2014,07,10,16,54,26.70
2014,07,10,16,55,26.70
2014,07,10,16,56,26.70
2014,07,10,16,57,26.70
2014,07,10,16,58,26.70
2014,07,10,16,59,26.80
2014,07,10,17,00,26.80
2014,07,10,17,01,26.80
2014,07,10,17,02,26.80
2014,07,10,17,03,26.70
2014,07,10,17,04,26.70
2014,07,10,17,05,26.70
2014,07,10,17,06,26.60
2014,07,10,17,07,26.60
2014,07,10,17,08,26.50
2014,07,10,17,09,26.50
2014,07,10,17,10,26.40
2014,07,10,17,11,26.40
2014,07,10,17,12,26.40
2014,07,10,17,13,26.40
2014,07,10,17,14,26.30
2014,07,10,17,15,26.30
2014,07,10,17,16,26.20
2014,07,10,17,17,26.20
2014,07,10,17,18,26.20
2014,07,10,17,19,26.20